Location: Black Swamp Observatory
(41.3920°N, 84.1250°W)
Time: 03:41:52
(UTC-05:00)

RS-15 - Visible Passes

Search period start: 04 March 2024 00:00
Search period end: 14 March 2024 01:00
Orbit: 1893 x 2151 km, 64.8° (Epoch: 04 March)

Date Brightness Start Highest point End Pass type
(mag) Time Alt. Az. Time Alt. Az. Time Alt. Az.
04 Mar 9.0 03:58:06 10° S 04:08:57 41° ESE 04:19:25 10° NE visible
04 Mar 8.2 06:08:53 10° SW 06:20:52 64° NW 06:32:24 10° NNE visible
05 Mar 9.3 03:23:28 10° SSE 03:33:18 30° ESE 03:42:49 10° NE visible
05 Mar 8.1 05:32:31 10° SW 05:44:40 78° NW 05:56:20 10° NNE visible
06 Mar 9.6 02:49:28 10° SE 02:57:46 22° E 03:05:51 10° NE visible
06 Mar 8.1 04:57:00 12° SSW 05:08:35 86° ESE 05:20:16 10° NE visible
07 Mar 9.9 02:16:30 10° SE 02:22:21 15° E 02:28:05 10° ENE visible
07 Mar 8.3 04:23:26 20° SSW 04:32:36 70° ESE 04:44:07 10° NE visible
08 Mar 8.5 03:49:38 27° S 03:56:44 55° ESE 04:07:54 10° NE visible
08 Mar 8.3 05:57:45 10° WSW 06:09:20 51° NW 06:20:31 10° NNE visible
09 Mar 8.8 03:15:40 29° SSE 03:20:58 42° ESE 03:31:33 10° NE visible
09 Mar 8.1 05:23:29 18° SW 05:32:59 62° NW 05:44:27 10° NNE visible
10 Mar 9.1 03:41:33 27° SE 03:45:19 32° ESE 03:54:59 10° NE visible
10 Mar 8.0 05:49:22 29° SW 05:56:45 76° NW 06:08:24 10° NNE visible
11 Mar 9.4 03:07:19 22° ESE 03:09:46 23° E 03:18:05 10° NE visible
11 Mar 8.0 05:15:07 40° SSW 05:20:39 88° ESE 05:32:20 10° NNE visible
11 Mar 8.8 07:24:09 10° W 07:34:39 34° NNW 07:44:48 10° NNE visible
12 Mar 9.7 02:33:00 16° ESE 02:34:20 16° E 02:40:29 10° ENE visible
12 Mar 8.1 04:40:47 49° S 04:44:40 72° ESE 04:56:12 10° NE visible
12 Mar 8.6 06:48:34 15° WSW 06:58:00 41° NW 07:08:39 10° NNE visible
13 Mar 8.4 04:06:22 50° SSE 04:08:47 57° ESE 04:19:59 10° NE visible
13 Mar 8.3 06:14:09 24° WSW 06:21:29 49° NW 06:32:34 10° NNE visible
